| time (UTC) | temp C | wind direction | speed KPH | gust KPH | rain 1hr cm | rain 24hr cm | rain mn cm | humidity % | barometer mb |
| 20260503021116 | 22 | 221 | 8.0 | 12.9 | 0.00 | 0.00 | 0.00 | 59 | 1010.0 |
| 20260503020616 | 22 | 221 | 8.0 | 14.5 | 0.00 | 0.00 | 0.00 | 59 | 1010.0 |
| 20260503020116 | 23 | 223 | 9.7 | 16.1 | 0.00 | 0.00 | 0.00 | 58 | 1010.1 |
| 20260503015617 | 23 | 222 | 8.0 | 16.1 | 0.00 | 0.00 | 0.00 | 58 | 1010.1 |
| 20260503015345 | 23 | 220 | 8.0 | 16.1 | 0.00 | 0.00 | 0.00 | 57 | 1010.0 |
| 20260503014614 | 23 | 232 | 8.0 | 16.1 | 0.00 | 0.00 | 0.00 | 57 | 1009.9 |
| 20260503014114 | 23 | 224 | 8.0 | 16.1 | 0.00 | 0.00 | 0.00 | 57 | 1009.9 |
| 20260503013615 | 23 | 227 | 9.7 | 20.9 | 0.00 | 0.00 | 0.00 | 57 | 1009.9 |
| 20260503013346 | 23 | 223 | 11.3 | 20.9 | 0.00 | 0.00 | 0.00 | 58 | 1010.0 |
| 20260503012613 | 23 | 225 | 11.3 | 20.9 | 0.00 | 0.00 | 0.00 | 57 | 1010.0 |
| 20260503012110 | 23 | 219 | 11.3 | 19.3 | 0.00 | 0.00 | 0.00 | 56 | 1010.0 |
| 20260503011611 | 23 | 224 | 12.9 | 22.5 | 0.00 | 0.00 | 0.00 | 56 | 1010.0 |
| 20260503011108 | 24 | 219 | 12.9 | 22.5 | 0.00 | 0.00 | 0.00 | 56 | 1009.9 |
| 20260503010609 | 24 | 229 | 12.9 | 20.9 | 0.00 | 0.00 | 0.00 | 55 | 1010.0 |
| 20260503010109 | 24 | 236 | 12.9 | 20.9 | 0.00 | 0.00 | 0.00 | 55 | 1009.9 |
| 20260503005605 | 24 | 223 | 12.9 | 25.7 | 0.00 | 0.00 | 0.00 | 55 | 1009.9 |
| 20260503005105 | 25 | 218 | 12.9 | 25.7 | 0.00 | 0.00 | 0.00 | 54 | 1009.9 |
| 20260503004606 | 25 | 219 | 14.5 | 24.1 | 0.00 | 0.00 | 0.00 | 54 | 1009.9 |
| 20260503004104 | 25 | 221 | 14.5 | 24.1 | 0.00 | 0.00 | 0.00 | 53 | 1009.9 |
| 20260503003102 | 26 | 203 | 12.9 | 24.1 | 0.00 | 0.00 | 0.00 | 53 | 1009.9 |
| 20260503002603 | 26 | 219 | 12.9 | 24.1 | 0.00 | 0.00 | 0.00 | 52 | 1010.0 |
| 20260503002103 | 26 | 223 | 12.9 | 22.5 | 0.00 | 0.00 | 0.00 | 51 | 1009.9 |
| 20260503001603 | 26 | 224 | 11.3 | 19.3 | 0.00 | 0.00 | 0.00 | 51 | 1009.8 |
| 20260503001102 | 26 | 213 | 12.9 | 19.3 | 0.00 | 0.00 | 0.00 | 52 | 1009.9 |
| 20260503000604 | 26 | 219 | 12.9 | 19.3 | 0.00 | 0.00 | 0.00 | 51 | 1009.8 |
| 20260503000104 | 26 | 230 | 11.3 | 19.3 | 0.00 | 0.00 | 0.00 | 50 | 1009.8 |
| 20260502235603 | 27 | 227 | 11.3 | 20.9 | 0.00 | 0.00 | 0.00 | 49 | 1009.8 |
| 20260502235104 | 27 | 218 | 11.3 | 20.9 | 0.00 | 0.00 | 0.00 | 47 | 1009.7 |
| 20260502234833 | 27 | 243 | 9.7 | 19.3 | 0.00 | 0.00 | 0.00 | 47 | 1009.7 |
| 20260502234336 | 27 | 221 | 11.3 | 22.5 | 0.00 | 0.00 | 0.00 | 48 | 1009.8 |
| 20260502233559 | 27 | 214 | 11.3 | 22.5 | 0.00 | 0.00 | 0.00 | 47 | 1009.8 |
| 20260502233328 | 27 | 208 | 12.9 | 22.5 | 0.00 | 0.00 | 0.00 | 47 | 1009.8 |
| 20260502232556 | 27 | 229 | 12.9 | 22.5 | 0.00 | 0.00 | 0.00 | 46 | 1009.9 |
| 20260502232056 | 27 | 226 | 11.3 | 20.9 | 0.00 | 0.00 | 0.00 | 46 | 1010.0 |
| 20260502231557 | 27 | 231 | 11.3 | 24.1 | 0.00 | 0.00 | 0.00 | 47 | 1009.9 |
| 20260502231053 | 27 | 254 | 14.5 | 24.1 | 0.00 | 0.00 | 0.00 | 47 | 1009.9 |
| 20260502230551 | 27 | 232 | 12.9 | 24.1 | 0.00 | 0.00 | 0.00 | 45 | 1010.1 |
| 20260502230050 | 27 | 267 | 12.9 | 25.7 | 0.00 | 0.00 | 0.00 | 47 | 1010.1 |
| 20260502225551 | 27 | 225 | 12.9 | 25.7 | 0.00 | 0.00 | 0.00 | 47 | 1010.1 |
| 20260502225050 | 27 | 220 | 12.9 | 22.5 | 0.00 | 0.00 | 0.00 | 47 | 1010.2 |
| 20260502224549 | 28 | 269 | 11.3 | 22.5 | 0.00 | 0.00 | 0.00 | 45 | 1010.3 |
| 20260502224049 | 28 | 219 | 11.3 | 19.3 | 0.00 | 0.00 | 0.00 | 44 | 1010.4 |
| 20260502223548 | 28 | 218 | 11.3 | 20.9 | 0.00 | 0.00 | 0.00 | 46 | 1010.5 |
| 20260502223047 | 27 | 234 | 12.9 | 20.9 | 0.00 | 0.00 | 0.00 | 45 | 1010.6 |
| 20260502222548 | 27 | 251 | 12.9 | 19.3 | 0.00 | 0.00 | 0.00 | 47 | 1010.7 |
| 20260502222048 | 27 | 231 | 12.9 | 24.1 | 0.00 | 0.00 | 0.00 | 45 | 1010.8 |
| 20260502221549 | 28 | 222 | 11.3 | 24.1 | 0.00 | 0.00 | 0.00 | 44 | 1010.9 |
| 20260502221048 | 28 | 223 | 11.3 | 20.9 | 0.00 | 0.00 | 0.00 | 46 | 1010.9 |
| 20260502220549 | 27 | 227 | 12.9 | 24.1 | 0.00 | 0.00 | 0.00 | 46 | 1011.0 |
| 20260502220049 | 27 | 222 | 12.9 | 24.1 | 0.00 | 0.00 | 0.00 | 47 | 1011.1 |
| 20260502215549 | 28 | 234 | 11.3 | 20.9 | 0.00 | 0.00 | 0.00 | 47 | 1011.3 |
| 20260502215048 | 27 | 244 | 9.7 | 20.9 | 0.00 | 0.00 | 0.00 | 46 | 1011.4 |
| 20260502214818 | 27 | 252 | 9.7 | 24.1 | 0.00 | 0.00 | 0.00 | 46 | 1011.4 |
| 20260502214046 | 27 | 257 | 11.3 | 24.1 | 0.00 | 0.00 | 0.00 | 46 | 1011.5 |
| 20260502213546 | 27 | 236 | 11.3 | 22.5 | 0.00 | 0.00 | 0.00 | 47 | 1011.6 |
| 20260502213046 | 27 | 219 | 9.7 | 19.3 | 0.00 | 0.00 | 0.00 | 47 | 1011.5 |
| 20260502212547 | 27 | 232 | 11.3 | 20.9 | 0.00 | 0.00 | 0.00 | 48 | 1011.5 |
| 20260502212047 | 26 | 232 | 12.9 | 20.9 | 0.00 | 0.00 | 0.00 | 48 | 1011.6 |
| 20260502211547 | 27 | 233 | 11.3 | 20.9 | 0.00 | 0.00 | 0.00 | 48 | 1011.6 |
| 20260502211046 | 27 | 236 | 12.9 | 20.9 | 0.00 | 0.00 | 0.00 | 50 | 1011.6 |
| 20260502210546 | 26 | 232 | 12.9 | 20.9 | 0.00 | 0.00 | 0.00 | 49 | 1011.7 |
| 20260502210046 | 27 | 267 | 11.3 | 17.7 | 0.00 | 0.00 | 0.00 | 49 | 1011.7 |
| 20260502205545 | 27 | 234 | 9.7 | 20.9 | 0.00 | 0.00 | 0.00 | 48 | 1011.8 |
| 20260502205045 | 27 | 262 | 11.3 | 20.9 | 0.00 | 0.00 | 0.00 | 49 | 1011.8 |
| 20260502204545 | 27 | 224 | 9.7 | 16.1 | 0.00 | 0.00 | 0.00 | 49 | 1011.9 |
| 20260502204038 | 27 | 238 | 8.0 | 14.5 | 0.00 | 0.00 | 0.00 | 50 | 1012.0 |
| 20260502203538 | 27 | 226 | 8.0 | 14.5 | 0.00 | 0.00 | 0.00 | 48 | 1012.0 |
| 20260502202810 | 26 | 248 | 8.0 | 16.1 | 0.00 | 0.00 | 0.00 | 50 | 1012.1 |
| 20260502202038 | 26 | 267 | 8.0 | 17.7 | 0.00 | 0.00 | 0.00 | 52 | 1012.2 |
| 20260502201540 | 26 | 265 | 8.0 | 17.7 | 0.00 | 0.00 | 0.00 | 53 | 1012.5 |
| 20260502201308 | 25 | 254 | 6.4 | 14.5 | 0.00 | 0.00 | 0.00 | 54 | 1012.6 |
| 20260502200538 | 25 | 229 | 6.4 | 14.5 | 0.00 | 0.00 | 0.00 | 54 | 1012.7 |
| 20260502200038 | 25 | 219 | 8.0 | 14.5 | 0.00 | 0.00 | 0.00 | 54 | 1012.8 |
| 20260502195538 | 25 | 229 | 6.4 | 14.5 | 0.00 | 0.00 | 0.00 | 54 | 1012.8 |
| 20260502195038 | 25 | 213 | 4.8 | 11.3 | 0.00 | 0.00 | 0.00 | 55 | 1012.9 |
| 20260502194539 | 25 | 209 | 6.4 | 16.1 | 0.00 | 0.00 | 0.00 | 55 | 1012.9 |
| 20260502194039 | 25 | 221 | 8.0 | 16.1 | 0.00 | 0.00 | 0.00 | 56 | 1013.1 |
| 20260502193038 | 24 | 221 | 6.4 | 11.3 | 0.00 | 0.00 | 0.00 | 57 | 1013.2 |
| 20260502192538 | 24 | 232 | 3.2 | 9.7 | 0.00 | 0.00 | 0.00 | 57 | 1013.2 |
| 20260502192309 | 24 | 237 | 3.2 | 9.7 | 0.00 | 0.00 | 0.00 | 60 | 1013.3 |
| 20260502191538 | 23 | 232 | 3.2 | 8.0 | 0.00 | 0.00 | 0.00 | 60 | 1013.2 |
| 20260502191039 | 23 | 232 | 3.2 | 8.0 | 0.00 | 0.00 | 0.00 | 60 | 1013.4 |
| 20260502190539 | 23 | 232 | 3.2 | 8.0 | 0.00 | 0.00 | 0.00 | 59 | 1013.6 |
| 20260502190309 | 23 | 230 | 3.2 | 8.0 | 0.00 | 0.00 | 0.00 | 61 | 1013.6 |
| 20260502185539 | 23 | 229 | 3.2 | 9.7 | 0.00 | 0.00 | 0.00 | 62 | 1013.7 |
| 20260502185309 | 22 | 229 | 4.8 | 11.3 | 0.00 | 0.00 | 0.00 | 62 | 1013.8 |
| 20260502184538 | 22 | 225 | 6.4 | 11.3 | 0.00 | 0.00 | 0.00 | 64 | 1013.8 |
| 20260502184038 | 22 | 228 | 4.8 | 9.7 | 0.00 | 0.00 | 0.00 | 66 | 1014.0 |
| 20260502183538 | 22 | 221 | 3.2 | 8.0 | 0.00 | 0.00 | 0.00 | 66 | 1014.1 |
| 20260502183038 | 21 | 221 | 4.8 | 11.3 | 0.00 | 0.00 | 0.00 | 68 | 1014.1 |
| 20260502182538 | 21 | 221 | 6.4 | 12.9 | 0.00 | 0.00 | 0.00 | 67 | 1014.3 |
| 20260502182039 | 21 | 216 | 4.8 | 12.9 | 0.00 | 0.00 | 0.00 | 69 | 1014.3 |
| 20260502181539 | 21 | 221 | 4.8 | 12.9 | 0.00 | 0.00 | 0.00 | 70 | 1014.4 |
| 20260502181039 | 20 | 241 | 4.8 | 9.7 | 0.00 | 0.00 | 0.00 | 70 | 1014.3 |
| 20260502180538 | 20 | 242 | 4.8 | 11.3 | 0.00 | 0.00 | 0.00 | 72 | 1014.3 |
| 20260502164301 | 17 | 240 | 1.6 | 8.0 | 0.00 | 0.00 | 0.00 | 85 | 1014.8 |
| 20260502163529 | 17 | 242 | 1.6 | 6.4 | 0.00 | 0.00 | 0.00 | 85 | 1014.8 |
| 20260502162525 | 16 | 242 | 1.6 | 4.8 | 0.00 | 0.00 | 0.00 | 84 | 1014.9 |
| 20260502162025 | 16 | 242 | 1.6 | 4.8 | 0.00 | 0.00 | 0.00 | 84 | 1014.9 |
| 20260502161524 | 16 | 242 | 1.6 | 6.4 | 0.00 | 0.00 | 0.00 | 84 | 1015.0 |
| 20260502161026 | 16 | 242 | 1.6 | 6.4 | 0.00 | 0.00 | 0.00 | 84 | 1015.0 |
| 20260502160755 | 16 | 242 | 0.0 | 6.4 | 0.00 | 0.00 | 0.00 | 83 | 1015.0 |
| 20260502152009 | 15 | 242 | 1.6 | 4.8 | 0.00 | 0.00 | 0.00 | 83 | 1015.3 |
| 20260502151506 | 15 | 242 | 1.6 | 4.8 | 0.00 | 0.00 | 0.00 | 83 | 1015.3 |
| 20260502151007 | 15 | 242 | 0.0 | 4.8 | 0.00 | 0.00 | 0.00 | 83 | 1015.2 |
| 20260502150505 | 14 | 242 | 0.0 | 4.8 | 0.00 | 0.00 | 0.00 | 84 | 1015.2 |
| 20260502123439 | 13 | 224 | 3.2 | 6.4 | 0.00 | 0.00 | 0.00 | 86 | 1013.9 |
| 20260502122938 | 13 | 224 | 3.2 | 6.4 | 0.00 | 0.00 | 0.00 | 86 | 1013.8 |
| 20260502122439 | 13 | 224 | 1.6 | 6.4 | 0.00 | 0.00 | 0.00 | 86 | 1013.7 |
| 20260502121937 | 13 | 224 | 0.0 | 4.8 | 0.00 | 0.00 | 0.00 | 86 | 1013.7 |
| 20260502121436 | 13 | 224 | 0.0 | 0.0 | 0.00 | 0.00 | 0.00 | 86 | 1013.6 |
| 20260502120937 | 13 | 224 | 0.0 | 0.0 | 0.00 | 0.00 | 0.00 | 86 | 1013.6 |
| 20260502120436 | 13 | 224 | 1.6 | 4.8 | 0.00 | 0.00 | 0.00 | 86 | 1013.5 |
| 20260502115436 | 13 | 224 | 1.6 | 4.8 | 0.00 | 0.00 | 0.00 | 86 | 1013.5 |
| 20260502114935 | 13 | 224 | 1.6 | 4.8 | 0.00 | 0.00 | 0.00 | 86 | 1013.5 |
| 20260502114704 | 13 | 224 | 1.6 | 4.8 | 0.00 | 0.00 | 0.00 | 86 | 1013.4 |
| 20260502114206 | 13 | 224 | 1.6 | 6.4 | 0.00 | 0.00 | 0.00 | 86 | 1013.4 |
| 20260502113434 | 13 | 224 | 1.6 | 6.4 | 0.00 | 0.00 | 0.00 | 86 | 1013.4 |
| 20260502112931 | 13 | 224 | 1.6 | 4.8 | 0.00 | 0.00 | 0.00 | 86 | 1013.4 |
| 20260502112429 | 13 | 224 | 1.6 | 6.4 | 0.00 | 0.00 | 0.00 | 86 | 1013.2 |
| 20260502112159 | 13 | 224 | 0.0 | 6.4 | 0.00 | 0.00 | 0.00 | 86 | 1013.2 |
| 20260502111429 | 13 | 224 | 0.0 | 0.0 | 0.00 | 0.00 | 0.00 | 86 | 1013.4 |
| 20260502111158 | 13 | 224 | 0.0 | 0.0 | 0.00 | 0.00 | 0.00 | 86 | 1013.4 |
| 20260502110425 | 13 | 224 | 0.0 | 0.0 | 0.00 | 0.00 | 0.00 | 86 | 1013.3 |
| 20260502105925 | 13 | 224 | 0.0 | 0.0 | 0.00 | 0.00 | 0.00 | 86 | 1013.2 |
| 20260502105422 | 13 | 224 | 0.0 | 0.0 | 0.00 | 0.00 | 0.00 | 86 | 1013.2 |
| 20260502104922 | 14 | 224 | 0.0 | 0.0 | 0.00 | 0.00 | 0.00 | 86 | 1013.3 |
| 20260502104423 | 13 | 224 | 0.0 | 0.0 | 0.00 | 0.00 | 0.00 | 86 | 1013.2 |
| 20260502103920 | 13 | 224 | 0.0 | 0.0 | 0.00 | 0.00 | 0.00 | 86 | 1013.2 |
| 20260502103420 | 13 | 224 | 0.0 | 0.0 | 0.00 | 0.00 | 0.00 | 86 | 1013.1 |
| 20260502102921 | 13 | 224 | 0.0 | 1.6 | 0.00 | 0.00 | 0.00 | 85 | 1013.2 |
| 20260502102419 | 14 | 224 | 1.6 | 3.2 | 0.00 | 0.00 | 0.00 | 85 | 1013.2 |
| 20260502102148 | 14 | 224 | 0.0 | 3.2 | 0.00 | 0.00 | 0.00 | 85 | 1013.2 |
| 20260502101419 | 14 | 224 | 0.0 | 1.6 | 0.00 | 0.00 | 0.00 | 85 | 1013.2 |
| 20260502100917 | 14 | 224 | 0.0 | 0.0 | 0.00 | 0.00 | 0.00 | 85 | 1013.3 |
| 20260502100416 | 14 | 224 | 0.0 | 0.0 | 0.00 | 0.00 | 0.00 | 85 | 1013.2 |
| 20260502091413 | 15 | 224 | 0.0 | 1.6 | 0.00 | 0.00 | 0.00 | 84 | 1013.5 |
| 20260502090910 | 15 | 224 | 0.0 | 1.6 | 0.00 | 0.00 | 0.00 | 84 | 1013.5 |
| 20260502090639 | 15 | 224 | 1.6 | 3.2 | 0.00 | 0.00 | 0.00 | 84 | 1013.5 |
| 20260502090142 | 15 | 224 | 0.0 | 3.2 | 0.00 | 0.00 | 0.00 | 84 | 1013.5 |
| 20260502071354 | 16 | 224 | 3.2 | 6.4 | 0.00 | 0.00 | 0.00 | 81 | 1014.2 |
| 20260502070853 | 16 | 224 | 1.6 | 4.8 | 0.00 | 0.00 | 0.00 | 81 | 1014.2 |
| 20260502070354 | 16 | 224 | 1.6 | 4.8 | 0.00 | 0.00 | 0.00 | 81 | 1014.2 |
| 20260502070124 | 16 | 224 | 1.6 | 4.8 | 0.00 | 0.00 | 0.00 | 81 | 1014.4 |
| 20260502065353 | 16 | 224 | 1.6 | 4.8 | 0.00 | 0.00 | 0.00 | 81 | 1014.3 |
| 20260502064852 | 16 | 224 | 1.6 | 4.8 | 0.00 | 0.00 | 0.00 | 80 | 1014.2 |
| 20260502063851 | 16 | 224 | 1.6 | 6.4 | 0.00 | 0.00 | 0.00 | 80 | 1014.2 |
| 20260502063352 | 16 | 224 | 3.2 | 6.4 | 0.00 | 0.00 | 0.00 | 80 | 1014.2 |
| 20260502063122 | 16 | 224 | 3.2 | 8.0 | 0.00 | 0.00 | 0.00 | 80 | 1014.1 |
| 20260502062351 | 16 | 224 | 4.8 | 8.0 | 0.00 | 0.00 | 0.00 | 80 | 1014.0 |
| 20260502061850 | 16 | 224 | 3.2 | 6.4 | 0.00 | 0.00 | 0.00 | 79 | 1014.1 |
| 20260502061350 | 16 | 224 | 3.2 | 6.4 | 0.00 | 0.00 | 0.00 | 79 | 1014.1 |
| 20260502060851 | 16 | 224 | 3.2 | 8.0 | 0.00 | 0.00 | 0.00 | 79 | 1014.1 |
| 20260502060352 | 16 | 224 | 4.8 | 8.0 | 0.00 | 0.00 | 0.00 | 79 | 1014.1 |
| 20260502055852 | 16 | 224 | 4.8 | 8.0 | 0.00 | 0.00 | 0.00 | 79 | 1014.1 |
| 20260502055352 | 16 | 224 | 4.8 | 8.0 | 0.00 | 0.00 | 0.00 | 79 | 1014.2 |
| 20260502055123 | 17 | 224 | 4.8 | 8.0 | 0.00 | 0.00 | 0.00 | 79 | 1014.2 |
| 20260502054352 | 17 | 224 | 4.8 | 8.0 | 0.00 | 0.00 | 0.00 | 79 | 1014.2 |
| 20260502053851 | 17 | 224 | 4.8 | 8.0 | 0.00 | 0.00 | 0.00 | 78 | 1014.2 |
| 20260502053352 | 17 | 224 | 3.2 | 8.0 | 0.00 | 0.00 | 0.00 | 78 | 1014.2 |
| 20260502052851 | 17 | 224 | 4.8 | 6.4 | 0.00 | 0.00 | 0.00 | 78 | 1014.2 |
| 20260502052622 | 17 | 224 | 4.8 | 8.0 | 0.00 | 0.00 | 0.00 | 78 | 1014.2 |
| 20260502052122 | 17 | 224 | 4.8 | 8.0 | 0.00 | 0.00 | 0.00 | 77 | 1014.1 |
| 20260502051350 | 17 | 224 | 4.8 | 8.0 | 0.00 | 0.00 | 0.00 | 77 | 1014.1 |
| 20260502050852 | 17 | 224 | 3.2 | 8.0 | 0.00 | 0.00 | 0.00 | 77 | 1014.0 |
| 20260502050351 | 17 | 224 | 3.2 | 8.0 | 0.00 | 0.00 | 0.00 | 76 | 1014.1 |
| 20260502045350 | 17 | 224 | 3.2 | 8.0 | 0.00 | 0.00 | 0.00 | 77 | 1014.0 |
| 20260502044850 | 17 | 224 | 3.2 | 8.0 | 0.00 | 0.00 | 0.00 | 76 | 1014.0 |
| 20260502044351 | 17 | 224 | 4.8 | 8.0 | 0.00 | 0.00 | 0.00 | 75 | 1013.9 |
| 20260502043850 | 18 | 224 | 3.2 | 9.7 | 0.00 | 0.00 | 0.00 | 75 | 1013.8 |
| 20260502043350 | 18 | 223 | 4.8 | 9.7 | 0.00 | 0.00 | 0.00 | 75 | 1013.8 |
| 20260502042849 | 18 | 223 | 4.8 | 9.7 | 0.00 | 0.00 | 0.00 | 75 | 1013.7 |
| 20260502042348 | 18 | 223 | 6.4 | 12.9 | 0.00 | 0.00 | 0.00 | 74 | 1013.5 |
| 20260502041849 | 18 | 223 | 6.4 | 12.9 | 0.00 | 0.00 | 0.00 | 74 | 1013.5 |
| 20260502041349 | 18 | 223 | 6.4 | 12.9 | 0.00 | 0.00 | 0.00 | 73 | 1013.5 |
| 20260502040846 | 18 | 223 | 6.4 | 12.9 | 0.00 | 0.00 | 0.00 | 73 | 1013.5 |
| 20260502040348 | 18 | 225 | 6.4 | 12.9 | 0.00 | 0.00 | 0.00 | 72 | 1013.4 |
| 20260502040125 | 18 | 223 | 8.0 | 12.9 | 0.00 | 0.00 | 0.00 | 72 | 1013.2 |
| 20260502035346 | 18 | 223 | 8.0 | 12.9 | 0.00 | 0.00 | 0.00 | 72 | 1013.2 |
| 20260502034843 | 18 | 224 | 8.0 | 12.9 | 0.00 | 0.00 | 0.00 | 71 | 1013.1 |
| 20260502034343 | 19 | 225 | 8.0 | 16.1 | 0.00 | 0.00 | 0.00 | 71 | 1013.0 |
| 20260502034112 | 19 | 228 | 8.0 | 16.1 | 0.00 | 0.00 | 0.00 | 70 | 1012.9 |
| 20260502033341 | 19 | 228 | 8.0 | 14.5 | 0.00 | 0.00 | 0.00 | 70 | 1012.9 |
| 20260502032838 | 19 | 229 | 8.0 | 16.1 | 0.00 | 0.00 | 0.00 | 69 | 1012.7 |
| 20260502032340 | 19 | 231 | 8.0 | 16.1 | 0.00 | 0.00 | 0.00 | 69 | 1012.7 |
| 20260502031839 | 19 | 229 | 8.0 | 14.5 | 0.00 | 0.00 | 0.00 | 69 | 1012.6 |
| 20260502031337 | 19 | 227 | 9.7 | 14.5 | 0.00 | 0.00 | 0.00 | 69 | 1012.6 |
| 20260502030837 | 19 | 225 | 9.7 | 14.5 | 0.00 | 0.00 | 0.00 | 68 | 1012.7 |
| 20260502030337 | 20 | 221 | 8.0 | 14.5 | 0.00 | 0.00 | 0.00 | 68 | 1012.6 |
| 20260502025837 | 20 | 222 | 8.0 | 16.1 | 0.00 | 0.00 | 0.00 | 67 | 1012.5 |
| 20260502025607 | 20 | 224 | 8.0 | 16.1 | 0.00 | 0.00 | 0.00 | 67 | 1012.5 |
| 20260502024837 | 20 | 219 | 8.0 | 14.5 | 0.00 | 0.00 | 0.00 | 66 | 1012.3 |
| 20260502024608 | 20 | 225 | 8.0 | 12.9 | 0.00 | 0.00 | 0.00 | 66 | 1012.2 |
| 20260502024103 | 20 | 219 | 8.0 | 14.5 | 0.00 | 0.00 | 0.00 | 65 | 1012.1 |
| 20260502023329 | 20 | 219 | 8.0 | 14.5 | 0.00 | 0.00 | 0.00 | 64 | 1012.0 |
| 20260502022828 | 21 | 223 | 8.0 | 14.5 | 0.00 | 0.00 | 0.00 | 64 | 1011.9 |
| 20260502022328 | 21 | 220 | 8.0 | 14.5 | 0.00 | 0.00 | 0.00 | 63 | 1011.9 |
| 20260502021824 | 21 | 220 | 9.7 | 16.1 | 0.00 | 0.00 | 0.00 | 63 | 1011.9 |
| 20260502021323 | 21 | 221 | 9.7 | 16.1 | 0.00 | 0.00 | 0.00 | 62 | 1011.8 |